Location: Belloy
(55.7522°N, 118.2333°W)
Time: 00:30:09
(UTC+00:00)

Envisat - Pass Details

Date: 08 December 2021
Orbit: 764 x 766 km, 98.2° (Epoch: 27 January)

Event Time Altitude Azimuth Distance (km) Brightness Sun altitude
Rises 01:00:38 0° 202° (SSW) 3,225 6.9 -12.7°
Reaches altitude 10° 01:03:21 10° 216° (SW) 2,304 6.4 -13.1°
Maximum altitude 01:07:26 24° 270° (W) 1,550 5.5 -13.6°
Drops below altitude 10° 01:11:33 10° 324° (NW) 2,318 5.7 -14.1°
Sets 01:14:19 0° 338° (NNW) 3,249 6.3 -14.5°
